OBJECT C (43760 NORAD) Tracking and Keplerian Element Data

This shows tracking and keplerian element data for the satellite.

Feedback or suggestion? Click here.




ElementValue
Catalog43760
NameOBJECT C
Epoch Orbit882
Epoch Day31.78389613
Epoch Year2019
RAAN105.3439
Inclination97.7606
Eccentricity0.0015159
Argument of Perigee69.255
Mean Anonmoly291.0293
Mean Motion14.95054009
Decay Rate2.16E-06
L11 43760U 18099C 19031.78389613 .00000216 00000-0 24993-4 0 9996
L22 43760 97.7606 105.3439 0015159 69.2550 291.0293 14.95054009 8821

Live tracking and technical data element details for OBJECT C (NORAD 43760). OBJECT C can be tracked NOW for your location showing map with azimuth and elevation plus other details from your city location.

Track the satellite on the map from your city or location and see movement details for azimuth, elevation, latitude, longitude, range, height, and movement on the map or in text.







IsCatalogInMostPopularTable: catalog: 43760, numindb: 124
Update: records affected: 1



GetName: 43760 OBJECT C

Hit Count: updated at: Tue, 16 Jul 2019 14:24:47 GMT